Location: Domont
(49.0278°N, 2.3264°E)
Time: 01:10:41
(UTC+00:00)

Cosmos 2123 Rocket - Pass Details

Date: 16 October 2021
Orbit: 961 x 992 km, 82.9° (Epoch: 06 December)

Event Time Altitude Azimuth Distance (km) Brightness Sun altitude
Rises 17:57:06 0° 354° (N) 3,721 7.1 -10.3°
Reaches altitude 10° 17:59:48 10° 1° (N) 2,768 6.4 -10.8°
Maximum altitude 18:05:48 42° 72° (ENE) 1,381 4.4 -11.8°
Drops below altitude 10° 18:11:45 10° 142° (SE) 2,744 6.0 -12.7°
Sets 18:14:24 0° 150° (SSE) 3,685 6.7 -13.2°
